Regional Weather Roundup
Issued by NWS Green Bay, WI

Home | Current Version | Previous Version | Text Only | Print | Product List | Glossary On
Versions: 1 2 3 4 5 6 7 8 9 10 11 12 13 14 15 16 17 18 19 20 21 22 23 24 25 26 27 28 29 30 31 32 33 34 35 36 37 38 39 40 41 42 43 44 45 46 47 48 49 50
000
ASUS43 KGRB 151311
RWRGRB

NORTH-CENTRAL AND NORTHEAST WISCONSIN REGIONAL WEATHER ROUNDUP
NATIONAL WEATHER SERVICE GREEN BAY WI
700 AM CST FRI DEC 15 2017

WIZ005-009-010>012-018-019-151400-
NORTH CENTRAL WISCONSIN

CITY           SKY/WX    TMP DP  RH WIND       PRES   REMARKS
IRONWOOD       LGT SNOW N/A N/A N/A W13       29.79F
MANITOWISH WTR FLURRIES  11   8  87 NW8       29.76F WCI   0
ARBOR VITAE    LGT SNOW  14  10  83 W7        29.77S WCI   4
EAGLE RIVER    FLURRIES  12   7  80 W12       29.74S WCI  -2
LAND O LAKES   LGT SNOW  13   9  86 W6        29.75S WCI   3
RHINELANDER    CLOUDY    12   6  77 NW8G17    29.77S WCI   0
PHILLIPS       FLURRIES  11   8  87 W5        29.80S WCI   3
ANTIGO         CLOUDY    12   7  81 NW14      29.78S WCI  -4
TOMAHAWK       LGT SNOW  11   8  85 NW6       29.80S WCI   2
MERRILL        FLURRIES  14   9  81 NW8       29.81S WCI   3
$$

WIZ013-073-151400-
NORTHEAST WISCONSIN

CITY           SKY/WX    TMP DP  RH WIND       PRES   REMARKS
IRON MOUNTAIN  MOCLDY    12   7  80 W8        29.73S WCI   0
MARINETTE      CLOUDY    16  11  80 W7        29.80S WCI   6
OCONTO         PTCLDY    13   8  81 W8        29.82R WCI   2
$$

WIZ017-030-035>037-045-151400-
CENTRAL WISCONSIN

CITY           SKY/WX    TMP DP  RH WIND       PRES   REMARKS
MEDFORD        FLURRIES  13   9  81 NW8       29.80S WCI   2
WAUSAU         FLURRIES  16  11  80 NW9       29.80S WCI   4
MOSINEE        FLURRIES  18  14  86 NW13      29.82R WCI   4
MARSHFIELD     CLOUDY    18  13  80 NW12      29.81S WCI   5
WISC RAPIDS    CLOUDY    19  12  74 NW10      29.86S WCI   7
STEVENS POINT  CLOUDY    18  13  82 W7        29.83S WCI   8
WAUPACA        FLURRIES  23  17  77 W9        29.84S
SHAWANO        FLURRIES  20  14  76 W7        29.82R
CLINTONVILLE   CLOUDY    19  12  73 NW9       29.83R WCI   9
WAUTOMA        FLURRIES  20  15  81 W12       29.85S WCI   8
$$

WIZ038-039-048-051-151400-
FOX VALLEY

CITY           SKY/WX    TMP DP  RH WIND       PRES   REMARKS
NWS GREEN BAY  CLOUDY    20  13  74 W9        29.83R WCI   9
APPLETON       CLOUDY    19  12  73 W12       29.81R WCI   7
OSHKOSH        CLOUDY    21  16  81 W7        29.83S
FOND DU LAC    MIX PCPN  22  15  75 W9        29.84S
$$

WIZ022-050-052-151400-
EAST CENTRAL WISCONSIN

CITY           SKY/WX    TMP DP  RH WIND       PRES   REMARKS
EPHRAIM        CLOUDY    18  12  76 NW9G17    29.76S WCI   7
WASHINGTON ISL LGT SNOW  19  14  82 W12G20    29.75S WCI   7
STURGEON BAY   CLOUDY    19  12  74 NW16      29.79S WCI   4
MANITOWOC      FLURRIES  20  16  84 W10       29.83S WCI   9
SHEBOYGAN      FLURRIES  21  16  81 W12       29.83S WCI   9
$$

LMZ563-521-522-541>543-151400-
LAKESHORE

STATION/POSITION TIME  TEMP    WIND        PRES    VSBY  WAVE
                       AIR SEA DIR/SP/G                  HT/PER
                 (UTC) (F)     (DEG/KT/KT) (MB)    (MI)  (FT/S)
SHEBOYGAN LKSHOR 1300   22     280/ 13/ 15 1011.5R
KEWAUNEE LKSHORE 1248   20     280/  9/ 14 1008.7S
NORTHPORT PIER   1240   20     290/  7/ 14 1008.1S
MENOMINEE LKSHOR 1248   17     250/  8/ 12 1008.7S
$$



USA.gov is the U.S. government's official web portal to all federal, state and local government web resources and services.